Location: Colebrook
(42.0017°N, 73.0973°W)
Time: 16:28:55
(UTC-05:00)

Vanguard 2 - Pass Details

Date: 27 October 2021
Orbit: 554 x 2936 km, 32.9° (Epoch: 04 December)

Event Time Altitude Azimuth Distance (km) Brightness Sun altitude
Exits shadow 02:40:35 14° 106° (ESE) 3,083 10.8 -50.3°
Drops below altitude 10° 02:41:24 10° 103° (ESE) 3,300 11.0 -50.2°
Sets 02:43:49 0° 97° (E) 4,007 11.6 -49.8°
